Timeline UpdatesTrip UpdatesNews PostsPvt PostsTravel TipsAdmin PostsConv PostsFollowed PostsChat RequestsBlog PostsPNR Posts

Disclaimer
Search
 
 
Wed Sep 3, 2014 12:36:59 ISTHomeTrainsΣChainsAtlasPNRForumGalleryNewsFAQTripsMembersLoginFeedback
No Recent News for this Train
Other Trains in the News **new
Latest...
.
Thu Jul 24, 2014 (11:10PM)
⇐ Return Journey: Train# 19019

19020/Dehradun - Mumbai Bandra Terminus Express

Time-Table HAS CHANGED. update tt
Today (11:17AM)
Change Departure Station:
Change Arrival Station:
Post a Train Travel TipPost a Train Travel Tip **new
Post a Comment/Question/Picture/VideoPost a Comment/Question/Picture/Video
Pantry/Catering
✕ NO Pantry Car
✓ Catering Avbl
Loco/Rake Reversals
SRE/Saharanpur Junction (6); LRJ/Laksar Junction (4);
RSA - Rake Sharing
Rake/Coach Composition
LOCO-SLR-HCPV-GEN-GEN-AB1-S1-S2-S3-S4-S5-S6-S7-S8-S9-SLR
Loco
GZB WAP-7 NZM-BDTS. ddn to nzm tkd wdp 3a. By Er...
Read more...
Ankit Shotra Bhagat Entry# 595554
News    PNR    Forum    Time-Table    Availability    Fare Chart    Map    Arr/Dep History    Trips    Gallery    ΣChains    X/O    Timeline    
Travel Time: 38h 42m    82 halts    Distance: 1612 km    Avg Speed: 41 km/hr
Type: Mail/Express
Zone: WR/Western
Departs @ 12:45
Platform# 3
SMTWTFS
Haridwar Junction/HW 
Arrives @ 03:27 +2 nights
Platform# 5
SMTWTFS
Mumbai Borivali/BVI 

82 halts. 250 intermediate Stations between Haridwar Junction and Mumbai Borivali

Show ALL intermediate Stations  Show Old Time-Table

#CodeStation NameX/OArrivesAvgDepartsAvgHaltPFDay#KmSpeedElevZoneAddress
1DDNDehradun (4)  -10:35 10:30-21-51.738648mNRDehradun, Uttarakhand
2DWODoiwala  11:04 11:01-11:06 11:03-2m--1-31.841484mNRDehradun, Uttarakhand
3RWLRaiwala Junction (2)X  11:38 11:33-11:40 11:35-2m21-11.117361mNRRishikesh, Uttarakhand
4MOTCMotichur (2)  12:00 11:58-12:02 12:00-2m11-4.518312mNRHaridwar, Uttarakhand
5HW»Haridwar Junction (9)»X  12:15-12:45-30m310.048294mNRHaridwar, Uttarakhand
6JWPJwalapur  12:53 12:50-12:55 12:52-2m--14.020292mNRHaridwar, Uttarakhand
7LRJLaksar Junction (4)X14:00-14:25-25m--126.953238mNRLaksar, Uttarakhand
8RKRoorkee (3)X  14:43 14:45-14:45 14:50-2 5m3144.746264mNRRoorkee - 247667, Uttarakhand
9SRESaharanpur Junction (6)X15:35-16:05-30m4179.448276mNRSaharanpur, Uttar Pradesh
10DBDDeoband (2)  16:50 16:48-16:52 16:50-2m21113.644258mNRSaharanpur, Uttar Pradesh
11MOZMuzaffarnagar (3)X  17:20 17:23-17:22 17:25-2m21137.763247mNRMuzaffarNagar, Uttar Pradesh
12KATKhatauli (2)  17:42 17:46-17:44 17:48-2m11159.876239mNRKhatauli, Uttar Pradesh
13MUTMeerut Cantt. (2)  18:08 18:11-18:10 18:13-2m11188.912230mNRMeerut, Uttar Pradesh
14MTCMeerut City Junction (6)X18:35-19:20-45m41193.273229mNRMeerut, Uttar Pradesh
15MDNRModinagar (2)X  19:34 19:36-19:36 19:38-2m21212.755221mNRGhaziabad, Uttar Pradesh
16MUDMuradnagar (2)  19:45 19:49-19:47 19:51-2m21222.859220mNRGhaziabad, Uttar Pradesh
17GZNNew Ghaziabad (2)X  20:02 20:03-20:04 20:05-2m21234.614213mNRGhaziabad, Uttar Pradesh
18GZBGhaziabad Junction (6)X  20:30 20:31-20:32 20:33-2m41240.534217mNRGhaziabad, Uttar Pradesh
19SBBSahibabad Junction (5)X  20:41 20:45-20:43 20:46-2 1m--1247.233209mNRGhaziabad, Uttar Pradesh
20NZMDelhi Hazrat Nizamuddin (7)O21:15-21:55-40m11263.225209mNRNew Delhi 110013, Delhi NCT
21TKDTuglakabad (4)XO  22:18-22:20-2m--1272.944213mNRNear Tughlakabad Metro Station, Delhi NCT
22FDBFaridabad (4)  22:44 22:35-22:46 22:36-2 1m31284.035206mNRold Faridabad, Haryana
23BVHBallabgarh (5)XO  22:58 22:50-23:00 22:52-2m--1292.129203mNRFaridabad, Haryana
24PWLPalwal (8)X  23:36-23:38-2m--1313.285200mNRPalwal, Haryana
25KSVKosi Kalan (3)O  00:08-00:10-2m22355.729189mNCRKosi Kalan, Uttar Pradesh
26MTJMathura Junction (10)X  01:35-01:45 01:40-10 5m32397.261179mNCRMathura, Uttar Pradesh
27BTEBharatpur Junction (5)  02:10 02:13-02:15-5 2m--2430.784174mWCRBharatpur, Rajasthan
28BXNBayana Junction (3)XO  02:45-02:47-2m--2472.770198mWCRBayana, Rajasthan
29HANHindaun City (2)  03:15-03:17-2m--2505.656230mWCRKarauli, Rajasthan
30SMBJShri Mahabirji (3)XO  03:26 03:28-03:28 03:30-2m--2515.841240mWCRKarauli, Rajasthan
31GGCGangapur City (3)  04:10 04:20-04:20 04:25-10 5m--2549.863270mWCRGangapur, Rajasthan
32MLZMalarnaX  04:50 04:57-04:52 04:59-2m--2583.686236mWCRSawai Madhopur, Rajasthan
33SWMSawai Madhopur Junction (4)X  05:20-05:25-5m--2613.878266mWCRSawai Madhopur, Rajasthan
34IDGIndargarh Sumerganj Mandi (2)X  05:48 05:53-05:50 05:55-2m--2650.066247mWCRIndargarh, Rajasthan
35LKELakheri (3)O  05:58 06:05-06:00 06:07-2m--2661.069228mWCRBundi, Rajasthan
36KPTNKeshorai PatanX  06:38 06:48-06:40 06:50-2m--2708.153243mWCRSH 33, Rajasthan
37GQLGurla  06:48 06:59-06:50 07:00-2 1m--2716.011251mWCRSH 33, Rajasthan
38KOTAKota Junction (5)07:30-07:50-20m22721.433256mWCRKota, Rajasthan
39DKNTDakaniya Talav (2)  08:01 08:07-08:03 08:08-2 1m22730.879278mWCRKota, Rajasthan
40DARADara  08:30 08:37-08:32 08:39-2m--2768.963354mWCRDara, Rajasthan
41MKXMorak (2)X  08:48 08:53-08:50 08:55-2m--2783.642337mWCRMorak, Rajasthan
42RMARamganj Mandi Junction (3)  09:03 09:08-09:05 09:10-2m--2792.757358mWCRRamganj Mandi, Rajasthan
43JHWJhalawar Road (3)X  09:18 09:23-09:20 09:25-2m--2805.155361mWCRJhalawar City, Rajasthan
44BWMBhawani Mandi (3)  09:38 09:43-09:40 09:45-2m--2821.576384mWCRBhawani Mandi, Madhya Pradesh
45GOHGaroth (2)X  09:58 10:03-10:00 10:05-2m12844.228441mWCRMadhya Pradesh 458880, Madhya Pradesh
46SGZShamgarh (3)X  10:25 10:28-10:30-5 2m--2855.067463mWCRMandsaur, Madhya Pradesh
47SVASuwasra (2)  10:42-10:44-2m--2868.566450mWCRSuwasra, Madhya Pradesh
48CMUChau Mahla (3)  10:58-11:00-2m12883.835426mWCRJhalawar, Rajasthan
49THURThuriaX  11:24-11:26-2m--2898.021430mWCRMDR 45, Madhya Pradesh
50VMAVikramgarh Alot (2)X  11:48-11:50-2m12905.761443mWCRKota Division, Madhya Pradesh
51LNRLuni Richha  12:03-12:05-2m--2918.928471mWCRAlote, Madhya Pradesh
52MEPMahidpur Road  12:28-12:30-2m--2929.529493mWCRGogapur, Madhya Pradesh
53NADNagda Junction (4)  13:05-13:15-10m--2946.664468mWRNagda, Madhya Pradesh
54KUHKhachrod (2)  13:26 13:28-13:28 13:30-2m--2960.457497mWRUjjain, Madhya Pradesh
55RNHRunkheraX  13:39 13:41-13:41 13:42-2 1m--2970.955478mWRUjjain, Madhya Pradesh
56BODBangrodX  13:48 13:50-13:50 13:51-2 1m--2978.225484mWRRatlam, Madhya Pradesh
57RTMRatlam Junction (7)X  14:15-14:35-20m42988.070495mWRRatlam, Madhya Pradesh
58RTIRaoti (2)  14:56 14:58-14:58 14:59-2 1m--21015.065409mWRState Highway 39A, Madhya Pradesh
59BOGBhairongarh (2)  15:08 15:10-15:10 15:11-2 1m--21026.845374mWRBhairongarh Railway Station, Madhya Pradesh
60BMIBamnia (2)  15:17 15:19-15:19 15:21-2m--21032.842392mWRBamnia, Madhya Pradesh
61AGRAmargarh (2)  15:25 15:27-15:27 15:28-2 1m--21037.052410mWRSH 39A, Madhya Pradesh
62PCNPanch Pipila (2)  15:37 15:39-15:39 15:40-2 1m--21046.476369mWRSH 39A, Madhya Pradesh
63THDRThandla Road (2)  15:49 15:51-15:51 15:53-2m--21060.460317mWRJhabua, Madhya Pradesh
64MGNMeghnagar (3)  15:59 16:01-16:01 16:03-2m--21068.373317mWRJhabua, Madhya Pradesh
65ANASAnas (2)  16:13 16:15-16:15 16:16-2 1m--21082.968288mWRMadhya Pradesh 389154 ?, Madhya Pradesh
66BIOBordi (2)  16:21 16:23-16:23 16:24-2 1m--21090.958289mWRNational Highway 59, Gujarat
67DHDDahod (3)  16:35-16:40 16:37-5 2m--21101.564313mWRDahod, Gujarat
68LMKLimkheda  17:06 17:08-17:08 17:09-2 1m--21134.460205mWRLimkheda, Gujarat
69PPDPiplod Junction  17:15 17:17-17:17 17:19-2m--21142.379209mWRPiplod, Gujarat
70SATSant Road (2)X  17:26 17:28-17:28 17:30-2m221154.220169mWROrwara, Gujarat
71GDAGodhra Junction (3)X  18:30-18:35-5m1021174.654122mWRGodhra, Gujarat
72KRSAKharsaliya (2)X  18:45 18:47-18:47 18:48-2 1m--21185.476107mWRPanchmahal, Gujarat
73DRLDerolX  18:56 18:58-18:58 19:00-2m121198.16881mWRKalol, Gujarat
74CPNChampaner Road JunctionX  19:09 19:11-19:11 19:13-2m--21210.67578mWRPanchmahal, Gujarat
75SMLASamlaya Junction (3)X  19:20 19:22-19:22 19:24-2m--21221.85267mWRVadodara, Gujarat
76BRCVadodara Junction (7)  19:55-20:05-10m321248.58136mWRVadodara 390005, Gujarat
77MYGMiyagam Karjan (2)  20:25 20:27-20:27 20:28-2 1m--21278.37029mWRKarjan, Gujarat
78BHBharuch Junction (5)X  21:01 21:03-21:03 21:05-2m421319.06219mWRBharuch, Gujarat
79AKVAnkleshwar Junction (4)X  21:12 21:14-21:14 21:16-2m221328.39319mWRAnkleshwar, Gujarat
80KSBKosamba Junction (3)X21:29 21:28-21:31 21:30-2m--21346.83130mWRKosamba, Gujarat
81STSurat (4)X  22:30-22:38-8m221378.27419mWRSurat 395001, Gujarat
82NVSNavsari (3)  23:03 23:02-23:05-2 3m--21407.97914mWRNavsari, Gujarat
83BIMBilimora Junction (4)X  23:21-23:23-2m--21429.03611mWRBilimora, Gujarat
84BLValsad (3)  23:53-23:55-2m321447.03815mWRValsad, Gujarat
85VAPIVapi (3)X  00:36-00:38-2m--31473.26827mWRVapi, Gujarat
86PLGPalghar (3)  02:04 01:50-02:06 02:02-2 12m--31554.73519mWRPalghar, Maharashtra
87VRVirar (8)  02:56-02:58-2m--31585.8536mWRDist. Palghar, Maharashtra
88BVI•Mumbai Borivali (8)•  03:30 03:27-03:32-2 5m531611.72319mWRMumbai - 400092, Maharashtra
89BDTSMumbai Bandra Terminus (5)  04:20--131630.4-4mWRMumbai 400050, Maharashtra
Scroll to Top
Scroll to Bottom